Location: Big Bend
(41.8409°N, 79.0042°W)
Time: 10:28:57
(UTC+00:00)

ISS - Visible Passes

Search period start: 12 October 2024 00:00
Search period end: 22 October 2024 00:00
Orbit: 411 x 423 km, 51.6° (Epoch: 12 October)

Date Brightness Start Highest point End Pass type
(mag) Time Alt. Az. Time Alt. Az. Time Alt. Az.
16 Oct -1.6 10:32:15 10° SSW 10:35:02 25° SE 10:37:49 10° ENE visible
17 Oct -0.9 09:44:34 10° SSE 09:46:30 15° SE 09:48:27 10° E visible
18 Oct -3.6 10:30:59 12° SW 10:34:03 71° SE 10:37:22 10° ENE visible
19 Oct -2.7 09:44:42 36° SSE 09:45:12 39° SE 09:48:20 10° ENE visible
20 Oct -0.6 08:58:08 15° E 08:58:08 15° E 08:58:58 10° E visible
20 Oct -3.4 10:31:02 22° W 10:32:49 45° NNW 10:36:02 10° NE visible
21 Oct -3.3 09:44:14 55° NE 09:44:14 55° NE 09:46:57 10° NE visible
